Torna al catalogo

THORAD AGENA D DEB

AttivoSSO
NORAD 4637·DEBRIS·🇺🇸 United States

Lanciato Apr 8, 1970 da Vandenberg Space Force Base

Loading…

Prossimi Passaggi (prossime 24 ore)

TLE

AggiornatoSource: Space-Track

Epoca: Sep 14, 2026, 02:17 UTC

1 04637U 70025V   26257.09563885  .00000034  00000-0  99852-4 0  9994
2 04637  99.9095 296.9902 0024890 104.3192 281.6636 13.64789424799761

Traccia THORAD AGENA D DEB in tempo reale con AllMySat

Download on the App Store